• In Uzbekistan
  • List of Countries
  • For 7 days
  • Water Temperature
  • Satellite Maps
  • Weather Map
  • Weather Widgets
  • user-avatar
    Login

    Hourly Weather Kalgoorlie

    Today, 23 June, Friday

    Time Temperature Precipitation Wind Pressure Humidity
    00:00 +15°C° 0 mm 2 mps 730 mmHg 58%
    01:00 +14°C° 0 mm 2 mps 730 mmHg 61%
    02:00 +14°C° 0 mm 2 mps 730 mmHg 64%
    03:00 +13°C° 0 mm 2 mps 730 mmHg 67%
    04:00 +13°C° 0 mm 2 mps 731 mmHg 69%
    05:00 +12°C° 0 mm 1 mps 731 mmHg 72%
    06:00 +12°C° 0 mm 1 mps 731 mmHg 71%
    07:00 +13°C° 0 mm 1 mps 731 mmHg 70%
    08:00 +14°C° 0 mm 1 mps 732 mmHg 66%
    09:00 +15°C° 0 mm 1 mps 732 mmHg 61%
    10:00 +18°C° 0 mm 1 mps 732 mmHg 56%
    11:00 +18°C° 0 mm 2 mps 732 mmHg 50%
    12:00 +19°C° 0 mm 2 mps 732 mmHg 48%
    13:00 +19°C° 0 mm 2 mps 732 mmHg 46%
    14:00 +19°C° 0 mm 3 mps 731 mmHg 44%
    15:00 +19°C° 0 mm 3 mps 731 mmHg 47%
    16:00 +18°C° 0 mm 3 mps 732 mmHg 50%
    17:00 +17°C° 0 mm 3 mps 732 mmHg 53%
    18:00 +16°C° 0 mm 3 mps 732 mmHg 56%
    19:00 +16°C° 0 mm 3 mps 733 mmHg 58%
    20:00 +14°C° 0 mm 4 mps 733 mmHg 61%
    21:00 +13°C° 0 mm 4 mps 733 mmHg 66%
    22:00 +13°C° 0 mm 4 mps 733 mmHg 70%
    23:00 +12°C° 0 mm 4 mps 733 mmHg 74%

    Tomorrow, 24 June, Saturday

    Time Temperature Precipitation Wind Pressure Humidity
    00:00 +11°C° 0 mm 4 mps 734 mmHg 80%
    01:00 +11°C° 0 mm 4 mps 734 mmHg 86%
    02:00 +10°C° 0 mm 4 mps 734 mmHg 92%
    03:00 +10°C° 0 mm 4 mps 734 mmHg 93%
    04:00 +9°C° 0 mm 5 mps 734 mmHg 94%
    05:00 +9°C° 0 mm 5 mps 734 mmHg 95%
    06:00 +9°C° 0 mm 5 mps 734 mmHg 92%
    07:00 +9°C° 0 mm 5 mps 734 mmHg 89%
    08:00 +10°C° 0 mm 5 mps 735 mmHg 86%
    09:00 +10°C° 0 mm 5 mps 735 mmHg 83%
    10:00 +12°C° 0 mm 5 mps 735 mmHg 79%
    11:00 +12°C° 0 mm 5 mps 735 mmHg 75%
    12:00 +13°C° 0 mm 5 mps 734 mmHg 70%
    13:00 +14°C° 0 mm 5 mps 734 mmHg 66%
    14:00 +14°C° 0 mm 5 mps 733 mmHg 61%
    15:00 +14°C° 0 mm 5 mps 733 mmHg 63%
    16:00 +13°C° 0 mm 4 mps 734 mmHg 65%
    17:00 +13°C° 0 mm 4 mps 734 mmHg 67%
    18:00 +12°C° 0 mm 4 mps 734 mmHg 69%
    19:00 +12°C° 0 mm 4 mps 734 mmHg 71%
    20:00 +12°C° 0 mm 3 mps 735 mmHg 73%
    21:00 +11°C° 0 mm 3 mps 735 mmHg 76%
    22:00 +10°C° 0 mm 3 mps 735 mmHg 79%
    23:00 +9°C° 0 mm 3 mps 735 mmHg 83%

    Day after tomorrow, 25 June, Sunday

    Time Temperature Precipitation Wind Pressure Humidity
    00:00 +9°C° 0 mm 3 mps 735 mmHg 83%
    01:00 +9°C° 0 mm 3 mps 735 mmHg 83%
    02:00 +8°C° 0 mm 3 mps 735 mmHg 83%
    03:00 +8°C° 0 mm 3 mps 735 mmHg 84%
    04:00 +7°C° 0 mm 3 mps 735 mmHg 85%
    05:00 +7°C° 0 mm 3 mps 735 mmHg 86%
    06:00 +6°C° 0 mm 4 mps 735 mmHg 86%
    07:00 +6°C° 0 mm 4 mps 736 mmHg 86%
    08:00 +7°C° 0 mm 4 mps 736 mmHg 86%
    09:00 +8°C° 0 mm 5 mps 736 mmHg 79%
    10:00 +9°C° 0 mm 5 mps 736 mmHg 71%
    11:00 +12°C° 0 mm 5 mps 736 mmHg 64%
    12:00 +12°C° 0 mm 5 mps 736 mmHg 61%
    13:00 +13°C° 0 mm 5 mps 735 mmHg 59%
    14:00 +13°C° 0 mm 5 mps 735 mmHg 56%
    15:00 +12°C° 0 mm 4 mps 735 mmHg 57%
    16:00 +12°C° 0 mm 4 mps 735 mmHg 59%
    17:00 +12°C° 0 mm 3 mps 735 mmHg 60%
    18:00 +11°C° 0 mm 3 mps 735 mmHg 63%
    19:00 +11°C° 0 mm 3 mps 736 mmHg 65%
    20:00 +10°C° 0 mm 3 mps 736 mmHg 67%
    21:00 +10°C° 0 mm 3 mps 736 mmHg 70%
    22:00 +10°C° 0 mm 3 mps 736 mmHg 74%
    23:00 +8°C° 0 mm 4 mps 737 mmHg 77%

    26 June, Monday

    Time Temperature Precipitation Wind Pressure Humidity
    00:00 +9°C° 0 mm 3 mps 736 mmHg 81%
    01:00 +9°C° 0 mm 3 mps 736 mmHg 85%
    02:00 +8°C° 0 mm 3 mps 736 mmHg 88%
    03:00 +8°C° 0 mm 3 mps 736 mmHg 90%
    04:00 +8°C° 0 mm 3 mps 736 mmHg 91%
    05:00 +7°C° 0 mm 3 mps 736 mmHg 93%
    06:00 +7°C° 0 mm 3 mps 736 mmHg 92%
    07:00 +8°C° 0 mm 3 mps 737 mmHg 91%
    08:00 +8°C° 0 mm 3 mps 737 mmHg 90%
    09:00 +9°C° 0 mm 3 mps 737 mmHg 79%
    10:00 +11°C° 0 mm 3 mps 737 mmHg 67%
    11:00 +13°C° 0 mm 3 mps 737 mmHg 55%
    12:00 +13°C° 0 mm 3 mps 736 mmHg 53%
    13:00 +14°C° 0 mm 2 mps 736 mmHg 52%
    14:00 +14°C° 0 mm 2 mps 735 mmHg 50%
    15:00 +14°C° 0 mm 2 mps 735 mmHg 51%
    16:00 +13°C° 0 mm 2 mps 735 mmHg 51%
    17:00 +13°C° 0 mm 1 mps 735 mmHg 52%
    18:00 +13°C° 0 mm 1 mps 736 mmHg 52%
    19:00 +13°C° 0 mm 2 mps 736 mmHg 52%
    20:00 +12°C° 0 mm 2 mps 736 mmHg 52%
    21:00 +12°C° 0 mm 2 mps 736 mmHg 52%
    22:00 +12°C° 0 mm 2 mps 736 mmHg 53%
    23:00 +12°C° 0 mm 2 mps 736 mmHg 53%

    27 June, Tuesday

    Time Temperature Precipitation Wind Pressure Humidity
    00:00 +12°C° 0 mm 2 mps 736 mmHg 55%
    01:00 +12°C° 0 mm 2 mps 736 mmHg 58%
    02:00 +12°C° 0 mm 2 mps 736 mmHg 60%
    03:00 +10°C° 0.1 mm 2 mps 736 mmHg 62%
    04:00 +10°C° 0.1 mm 2 mps 737 mmHg 64%
    05:00 +10°C° 0.1 mm 2 mps 737 mmHg 67%
    06:00 +10°C° 0.1 mm 2 mps 737 mmHg 67%
    07:00 +9°C° 0.1 mm 3 mps 738 mmHg 68%
    08:00 +9°C° 0.1 mm 3 mps 738 mmHg 69%
    09:00 +11°C° 0 mm 3 mps 738 mmHg 61%
    10:00 +12°C° 0 mm 4 mps 738 mmHg 53%
    11:00 +14°C° 0 mm 4 mps 738 mmHg 45%
    12:00 +14°C° 0 mm 4 mps 738 mmHg 43%
    13:00 +15°C° 0 mm 5 mps 737 mmHg 41%
    14:00 +15°C° 0 mm 5 mps 737 mmHg 39%
    15:00 +14°C° 0 mm 4 mps 737 mmHg 43%
    16:00 +13°C° 0 mm 4 mps 737 mmHg 47%
    17:00 +12°C° 0 mm 3 mps 738 mmHg 50%
    18:00 +12°C° 0 mm 3 mps 738 mmHg 54%
    19:00 +11°C° 0 mm 3 mps 739 mmHg 57%
    20:00 +10°C° 0 mm 3 mps 739 mmHg 61%
    21:00 +10°C° 0 mm 3 mps 739 mmHg 65%
    22:00 +9°C° 0 mm 3 mps 740 mmHg 69%
    23:00 +9°C° 0 mm 3 mps 740 mmHg 72%

    28 June, Wednesday

    Time Temperature Precipitation Wind Pressure Humidity
    00:00 +8°C° 0 mm 3 mps 740 mmHg 76%
    01:00 +8°C° 0 mm 3 mps 740 mmHg 79%
    02:00 +7°C° 0 mm 3 mps 740 mmHg 82%
    03:00 +7°C° 0 mm 3 mps 740 mmHg 84%
    04:00 +7°C° 0 mm 3 mps 740 mmHg 87%
    05:00 +5°C° 0 mm 3 mps 740 mmHg 89%
    06:00 +5°C° 0 mm 3 mps 741 mmHg 90%
    07:00 +6°C° 0 mm 4 mps 741 mmHg 90%
    08:00 +6°C° 0 mm 4 mps 741 mmHg 91%
    09:00 +8°C° 0 mm 5 mps 741 mmHg 80%
    10:00 +9°C° 0 mm 5 mps 741 mmHg 69%
    11:00 +11°C° 0 mm 6 mps 741 mmHg 58%
    12:00 +13°C° 0 mm 5 mps 741 mmHg 55%
    13:00 +14°C° 0 mm 5 mps 740 mmHg 52%
    14:00 +14°C° 0 mm 5 mps 740 mmHg 49%
    15:00 +13°C° 0 mm 5 mps 740 mmHg 53%
    16:00 +12°C° 0 mm 4 mps 740 mmHg 57%
    17:00 +12°C° 0 mm 4 mps 740 mmHg 61%
    18:00 +11°C° 0 mm 4 mps 741 mmHg 63%
    19:00 +10°C° 0 mm 4 mps 741 mmHg 65%
    20:00 +10°C° 0 mm 4 mps 741 mmHg 67%
    21:00 +8°C° 0 mm 4 mps 741 mmHg 69%
    22:00 +8°C° 0 mm 4 mps 742 mmHg 72%
    23:00 +7°C° 0 mm 4 mps 742 mmHg 75%
    Show more